User: anonymous   Login
Location: Unspecified
(0.0000°N, 0.0000°E)
Time: 02:46:18
(UTC+00:00)
Language:

Sich 1 - Orbit

View from above orbital plane
View from above orbital plane
View from above satellite
View from above satellite

Ground track
Ground track

The orbit data is extracted from the following two-line orbital elements,

1 23657U 95046A   17147.54297361 +.00000218 +00000-0 +22144-4 0  9992
2 23657 082.5267 280.1866 0023129 147.1552 213.1107 14.85820155174105
Epoch (UTC): 27 May 2017 13:01:52
Eccentricity: 0.0023129
inclination: 82.5267°
perigee height: 595 km
apogee height: 627 km
right ascension of ascending node: 280.1866°
argument of perigee: 147.1552°
revolutions per day: 14.85820155
mean anomaly at epoch: 213.1107°
orbit number at epoch: 17410

The dashed part of the orbit path shows where the satellite is in the earth's shadow,  

DLR